User: anonymous   Login
Location: Chavannes
(47.1090°N, 0.2226°W)
Time: 16:59:34
(UTC+00:00)
Language:

Cosmos 389 Rocket - Orbit

View from above orbital plane
View from above orbital plane
View from above satellite
View from above satellite

Ground track
Ground track

The orbit data is extracted from the following two-line orbital elements,

1  4814U 70113B   22024.48605544  .00004356  00000-0  11498-3 0  9999
2  4814  81.1414 171.8921 0023245  51.3832 308.9485 15.37928831792568
Epoch (UTC): 24 January 2022 11:39:55
Eccentricity: 0.0023245
inclination: 81.1414°
perigee height: 436 km
apogee height: 468 km
right ascension of ascending node: 171.8921°
argument of perigee: 51.3832°
revolutions per day: 15.37928831
mean anomaly at epoch: 308.9485°
orbit number at epoch: 79256

The dashed part of the orbit path shows where the satellite is in the earth's shadow,  

DLR